Regional Weather Roundup
Issued by NWS

Home | Current Version | Previous Version | Graphics & Text | Print | Product List | Glossary On
Versions: 1 2 3 4 5 6 7 8 9 10 11 12 13 14 15 16 17 18 19 20 21 22 23 24 25 26 27 28 29 30 31 32 33 34 35 36 37 38 39 40 41 42 43 44 45 46 47 48 49 50
464
ASUS43 KBIS 131210
RWRND

NORTH DAKOTA REGIONAL WEATHER ROUNDUP
NATIONAL WEATHER SERVICE BISMARCK ND
600 AM CST SAT FEB 13 2016

NOTE: "FAIR" INDICATES FEW OR NO CLOUDS BELOW 12,000 FEET WITH NO
SIGNIFICANT WEATHER AND/OR OBSTRUCTIONS TO VISIBILITY.


NDZ001>003-009>011-017-131300-
NORTHWEST NORTH DAKOTA

CITY           SKY/WX    TMP DP  RH WIND       PRES   REMARKS
WILLISTON      CLOUDY    14   8  77 SE13G21   30.10F WCI   0
6HR MIN TEMP:  12; 6HR MAX TEMP:  14; 6HR PCP:  0.04;

MINOT          FLURRIES   9  -3  58 E13       30.27F WCI  -7
MINOT AFB      CLOUDY     7  -1  67 SE15      30.27F WCI -10
$$

NDZ018>021-031>035-040>046-131300-
SOUTHWEST NORTH DAKOTA

CITY           SKY/WX    TMP DP  RH WIND       PRES   REMARKS
BISMARCK       CLOUDY     9   0  67 SE14      30.33F WCI  -7
6HR MIN TEMP:   5; 6HR MAX TEMP:  10;

DICKINSON      CLOUDY    11   7  84 SE23G33   30.07F WCI  -9
GARRISON         N/A      7   2  80 SE14      30.25F WCI -10
6HR MIN TEMP:   5; 6HR MAX TEMP:   7;

HETTINGER ARPT CLOUDY    13  10  88 SE18G26   30.14F WCI  -4
$$

NDZ004>008-012>016-024-026-027-054-131300-
NORTHEAST NORTH DAKOTA

CITY           SKY/WX    TMP DP  RH WIND       PRES   REMARKS
GRAND FORKS    CLOUDY    -7 -13  75 SE7       30.57F WCI -21
GRND FRKS AFB  CLOUDY    -9 -15  74 S7        30.55F WCI -23
DEVILS LAKE    CLOUDY    -7 -12  79 SE12      30.44F WCI -26
$$

NDZ022-023-025-028>030-036>039-047>053-131300-
SOUTHEAST NORTH DAKOTA

CITY           SKY/WX    TMP DP  RH WIND       PRES   REMARKS
FARGO          CLOUDY    -6 -13  71 SE7       30.59F WCI -20
6HR MIN TEMP:  -8; 6HR MAX TEMP:  -6;

JAMESTOWN      CLOUDY    -3 -10  72 SE13      30.44F WCI -22
$$





USA.gov is the U.S. government's official web portal to all federal, state and local government web resources and services.